Weather History for Joplin, MO

Change the Weather History Date:

Tuesday, April 22, 2014

  Actual Average Record
Temperature  
Mean Temperature 60 °F 60 °F  
Max Temperature 70 °F 72 °F 90 °F (1965)
Min Temperature 49 °F 49 °F 29 °F (1986)
Degree Days  
Heating Degree Days 5 6  
Month to date heating degree days 221 199  
Since 1 July heating degree days 4733 3961  
Cooling Degree Days 0 2  
Month to date cooling degree days 12 28  
Year to date cooling degree days 12 38  
Growing Degree Days 10 (Base 50)    
Moisture  
Dew Point 43 °F    
Average Humidity 64    
Maximum Humidity 100    
Minimum Humidity 28    
Precipitation  
Precipitation 0.00 in 0.16 in 2.36 in (1983)
Month to date precipitation 0.87 3.02  
Year to date precipitation 3.60 10.79  
Sea Level Pressure  
Sea Level Pressure 30.04 in    
Wind  
Wind Speed 6 mph (NNE)    
Max Wind Speed 15 mph    
Max Gust Speed 23 mph    
Visibility 8 miles    
Events Fog    
T = Trace of Precipitation, MM = Missing Value Source: NWS Daily Summary

Daily Weather History Graph

Daily Weather History Graph

Search for Another Location

Airport:

Trip Planner

Search our weather history database for the weather conditions in past years. The results will help you decide how hot, cold, wet, or windy it might be!

Date:

Astronomy

Apr. 22, 2014 Rise Set
Actual Time 6:34 AM CDT 7:59 PM CDT
Civil Twilight 6:06 AM CDT 8:26 PM CDT
Nautical Twilight 5:34 AM CDT 8:59 PM CDT
Astronomical Twilight 4:59 AM CDT 9:33 PM CDT
Moon 2:14 AM CDT (4/22) 1:10 PM CDT (4/22)
Length of Visible Light 14h 19m
Length of Day
13h 25m
Last Quarter, 46% of the Moon is Illuminated
Apr 22
Last Quarter
Apr 29
New
May 6
First Quarter
May 14
Full
May 21
Last Quarter

Hourly Weather History & Observations

Time (CDT) Temp. Dew Point Humidity Pressure Visibility Wind Dir Wind Speed Gust Speed Precip Events Conditions
12:53 AM 57.0 °F 55.9 °F 96% 30.01 in 7.0 mi NNW 5.8 mph - N/A   Scattered Clouds
1:53 AM 55.0 °F 55.0 °F 100% 30.02 in 6.0 mi NNW 6.9 mph - N/A   Clear
2:53 AM 55.9 °F 55.0 °F 97% 30.02 in 3.0 mi NNW 4.6 mph - N/A   Clear
2:57 AM 55.9 °F 55.0 °F 97% 30.03 in 1.8 mi NNW 4.6 mph - N/A   Clear
3:16 AM 55.0 °F 54.0 °F 96% 30.03 in 0.5 mi NNW 4.6 mph - N/A Fog Fog
3:21 AM 55.0 °F 55.0 °F 100% 30.03 in 1.0 mi NNW 4.6 mph - N/A   Clear
3:35 AM 54.0 °F 53.1 °F 97% 30.03 in 3.0 mi North 4.6 mph - N/A   Clear
3:53 AM 51.1 °F 51.1 °F 100% 30.03 in 9.0 mi North 8.1 mph - N/A   Clear
4:53 AM 53.1 °F 44.1 °F 71% 30.05 in 10.0 mi North 9.2 mph - N/A   Clear
5:53 AM 51.1 °F 41.0 °F 68% 30.07 in 10.0 mi NNE 5.8 mph - N/A   Clear
6:53 AM 50.0 °F 41.0 °F 71% 30.08 in 10.0 mi NNE 5.8 mph - N/A   Clear
7:53 AM 52.0 °F 42.1 °F 69% 30.11 in 10.0 mi NNE 6.9 mph - N/A   Clear
8:53 AM 55.0 °F 41.0 °F 59% 30.10 in 10.0 mi NE 10.4 mph - N/A   Clear
9:53 AM 57.0 °F 39.0 °F 51% 30.12 in 10.0 mi NE 10.4 mph - N/A   Clear
10:53 AM 61.0 °F 41.0 °F 48% 30.11 in 10.0 mi North 5.8 mph - N/A   Clear
11:53 AM 64.0 °F 41.0 °F 43% 30.11 in 10.0 mi Variable 6.9 mph - N/A   Clear
12:53 PM 66.0 °F 39.0 °F 37% 30.09 in 10.0 mi ENE 9.2 mph - N/A   Clear
1:53 PM 66.9 °F 37.0 °F 33% 30.06 in 10.0 mi NE 8.1 mph - N/A   Clear
2:53 PM 68.0 °F 37.0 °F 32% 30.05 in 10.0 mi Variable 5.8 mph - N/A   Clear
3:53 PM 69.1 °F 36.0 °F 30% 30.03 in 10.0 mi Variable 5.8 mph - N/A   Clear
4:53 PM 70.0 °F 37.9 °F 31% 30.02 in 10.0 mi Variable 6.9 mph - N/A   Clear
5:53 PM 69.1 °F 35.1 °F 29% 30.00 in 10.0 mi North 4.6 mph - N/A   Clear
6:53 PM 68.0 °F 36.0 °F 31% 29.99 in 10.0 mi NNE 5.8 mph - N/A   Clear
7:53 PM 64.0 °F 35.1 °F 34% 29.98 in 10.0 mi NE 3.5 mph - N/A   Clear
8:53 PM 57.9 °F 36.0 °F 44% 29.99 in 10.0 mi NE 3.5 mph - N/A   Clear
9:53 PM 52.0 °F 42.1 °F 69% 30.00 in 10.0 mi ENE 3.5 mph - N/A   Clear
10:53 PM 55.0 °F 37.9 °F 53% 29.99 in 10.0 mi ENE 5.8 mph - N/A   Clear
11:53 PM 53.1 °F 37.9 °F 57% 29.99 in 10.0 mi East 4.6 mph - N/A   Clear